Regional Weather Roundup
Issued by NWS Sioux Falls, SD

Home | Current Version | Previous Version | Graphics & Text | Print | Product List | Glossary On
Versions: 1 2 3 4 5 6 7 8 9 10 11 12 13 14 15 16 17 18 19 20 21 22 23 24 25 26 27 28 29 30 31 32 33 34 35 36 37 38 39 40 41 42 43 44 45 46 47 48 49 50
000
ASUS43 KFSD 200310
RWRFSD

WEATHER ROUNDUP FOR SE SOUTH DAKOTA/SW MINNESOTA/NW IOWA
NATIONAL WEATHER SERVICE SIOUX FALLS SD
900 PM CST SUN NOV 19 2017

NOTE: "FAIR" INDICATES FEW OR NO CLOUDS BELOW 12,000 FEET WITH NO
SIGNIFICANT WEATHER AND OR OBSTRUCTIONS TO VISIBILITY.


SDZ038>040-050-052>070-200400-
SOUTHEAST SOUTH DAKOTA

CITY           SKY/WX    TMP DP  RH WIND       PRES   REMARKS
BROOKINGS      CLOUDY    36  24  62 S10       29.80F
CHAMBERLAIN    CLOUDY    37  24  59 S5        29.78F
HURON          CLOUDY    36  25  64 S6        29.77F
MADISON        FAIR      37  23  56 S7        29.81F
MITCHELL       CLOUDY    40  25  55 S7        29.80F
SIOUX FALLS    CLOUDY    34  25  69 CALM      29.82F
WINNER         FAIR      43  21  41 SW3       29.79F
YANKTON        CLOUDY    41  25  53 SE6       29.84F
$$

MNZ071-072-080-081-089-090-097-098-200400-
SOUTHWEST MINNESOTA

CITY           SKY/WX    TMP DP  RH WIND       PRES   REMARKS
FAIRMONT       CLOUDY    38  27  64 SW13      29.86F
JACKSON        CLOUDY    36  28  75 S7        29.85F
LUVERNE        CLOUDY    30  23  74 S5        29.83F WCI  25
MARSHALL       CLOUDY    42  25  50 SW9       29.80F
MONTEVIDEO     CLOUDY    37  25  60 W5        29.78F
PIPESTONE      CLOUDY    34  23  64 S5        29.81F WCI  30
REDWOOD FALLS  CLOUDY    37  23  56 SW12      29.80F
WINDOM         CLOUDY    37  21  52 S5        29.83F
WORTHINGTON    CLOUDY    37  26  64 S9        29.84F
$$

IAZ001>003-012>014-020>022-031-032-NEZ013-014-SDZ071-200400-
NORTHWEST IOWA

CITY           SKY/WX    TMP DP  RH WIND       PRES   REMARKS
CHEROKEE       CLOUDY    35  27  73 S5        29.88F
DENISON        CLOUDY    39  27  60 S9        29.93S
ESTHERVILLE    CLOUDY    31  27  85 S9        29.86F WCI  23
LE MARS        CLOUDY    39  27  60 S6        29.87S
ORANGE CITY    PTCLDY    39  28  65 S5        29.86F
SHELDON        CLOUDY    37  25  60 S6        29.83F
SIOUX CITY     CLOUDY    36  26  67 SE6       29.89S
SPENCER        CLOUDY    32  26  78 S6        29.87F WCI  26
STORM LAKE     CLOUDY    36  27  69 S9        29.88F
$$

ABBREVIATIONS USED IN REMARKS
   TC - TEMPERATURE IN CELSIUS
  WCI - WIND CHILL INDEX
   HX - HEAT INDEX
  VSB - VISIBILITY





USA.gov is the U.S. government's official web portal to all federal, state and local government web resources and services.